Petersburg, AK

7:09 AM AKST on November 23, 2017 (GMT -0900)
Johnson Petersburg

Weather History for PAPG - January, 2013

Change the Weather History Date:

Wednesday, January 23, 2013

  Actual Average Record
Temperature  
Mean Temperature 37 °F -  
Max Temperature 39 °F 32 °F 48 °F (1985)
Min Temperature 35 °F 25 °F 6 °F (1999)
Degree Days  
Heating Degree Days 28    
Moisture  
Dew Point 35 °F    
Average Humidity 92    
Maximum Humidity 93    
Minimum Humidity 87    
Precipitation  
Precipitation 0.26 in - - ()
Sea Level Pressure  
Sea Level Pressure 29.68 in    
Wind  
Wind Speed 1 mph (SW)    
Max Wind Speed 6 mph    
Max Gust Speed -    
Visibility 10 miles    
Events      
Averages and records for this station are not official NWS values.
T = Trace of Precipitation, MM = Missing Value Source: NWS Daily Summary

Daily Weather History Graph

Daily Weather History Graph

Search for Another Location

Airport or City:

Trip Planner

Search our weather history database for the weather conditions in past years. The results will help you decide how hot, cold, wet, or windy it might be!

Date:

Astronomy

Jan. 23, 2013 Rise Set
Actual Time 8:05 AM AKST 4:02 PM AKST
Civil Twilight 7:21 AM AKST 4:46 PM AKST
Nautical Twilight 6:34 AM AKST 5:34 PM AKST
Astronomical Twilight 5:49 AM AKST 6:18 PM AKST
Moon 1:08 PM AKST 5:33 AM AKST
Length of Visible Light 9h 25m
Length of Day
7h 57m
Waxing Gibbous, 90% of the Moon is Illuminated
Jan 23
Waxing Gibbous
Jan 26
Full
Feb 3
Last Quarter
Feb 9
New
Feb 17
First Quarter

Hourly Weather History & Observations

Time (AKST) Temp. Windchill Dew Point Humidity Pressure Visibility Wind Dir Wind Speed Gust Speed Precip Events Conditions
12:16 AM 37.4 °F - 35.6 °F 93% 29.66 in 10.0 mi Calm Calm - N/A   Overcast
12:36 AM 37.4 °F - 35.6 °F 93% 29.66 in 10.0 mi Calm Calm - N/A   Overcast
12:56 AM 37.4 °F - 35.6 °F 93% 29.65 in 10.0 mi Calm Calm - 0.06 in   Overcast
1:16 AM 37.4 °F 33.8 °F 35.6 °F 93% 29.65 in 10.0 mi SW 4.6 mph - 0.02 in   Overcast
1:36 AM 37.4 °F - 35.6 °F 93% 29.65 in 10.0 mi Calm Calm - 0.03 in   Overcast
1:56 AM 37.4 °F - 35.6 °F 93% 29.65 in 10.0 mi Calm Calm - 0.04 in   Overcast
2:16 AM 37.4 °F - 35.6 °F 93% 29.65 in 10.0 mi Calm Calm - 0.02 in   Overcast
2:36 AM 35.6 °F - 33.8 °F 93% 29.66 in 9.0 mi Calm Calm - 0.02 in   Overcast
2:56 AM 37.4 °F - 35.6 °F 93% 29.65 in 10.0 mi Calm Calm - 0.03 in   Overcast
3:16 AM 35.6 °F 32.8 °F 33.8 °F 93% 29.65 in 10.0 mi WSW 3.5 mph - N/A   Overcast
3:36 AM 37.4 °F 34.9 °F 35.6 °F 93% 29.65 in 10.0 mi SW 3.5 mph - N/A   Overcast
3:56 AM 35.6 °F 31.7 °F 33.8 °F 93% 29.65 in 10.0 mi West 4.6 mph - N/A   Overcast
4:16 AM 35.6 °F - 33.8 °F 93% 29.65 in 10.0 mi Calm Calm - N/A   Overcast
4:36 AM 37.4 °F 34.9 °F 35.6 °F 93% 29.65 in 10.0 mi South 3.5 mph - N/A   Overcast
4:56 AM 35.6 °F 32.8 °F 33.8 °F 93% 29.64 in 10.0 mi SW 3.5 mph - N/A   Overcast
5:16 AM 37.4 °F 33.8 °F 33.8 °F 87% 29.65 in 6.0 mi WSW 4.6 mph - N/A   Overcast
5:36 AM 35.6 °F 30.7 °F 33.8 °F 93% 29.65 in 10.0 mi WSW 5.8 mph - N/A   Overcast
5:56 AM 37.4 °F 34.9 °F 35.6 °F 93% 29.65 in 10.0 mi WSW 3.5 mph - N/A   Overcast
6:16 AM 37.4 °F 32.8 °F 33.8 °F 87% 29.65 in 10.0 mi SW 5.8 mph - 0.02 in   Overcast
6:36 AM 37.4 °F 33.8 °F 35.6 °F 93% 29.66 in 10.0 mi WSW 4.6 mph - 0.02 in   Overcast
6:56 AM 35.6 °F 32.8 °F 33.8 °F 93% 29.66 in 10.0 mi West 3.5 mph - 0.02 in   Overcast
7:16 AM 37.4 °F - 35.6 °F 93% 29.66 in 10.0 mi Calm Calm - N/A   Overcast
7:36 AM 35.6 °F - 33.8 °F 93% 29.66 in 7.0 mi Calm Calm - N/A   Overcast
7:56 AM 37.4 °F - 35.6 °F 93% 29.66 in 7.0 mi Calm Calm - N/A   Overcast
8:16 AM 35.6 °F 32.8 °F 33.8 °F 93% 29.66 in 7.0 mi East 3.5 mph - N/A   Overcast
8:36 AM 35.6 °F 31.7 °F 33.8 °F 93% 29.67 in 7.0 mi West 4.6 mph - N/A   Overcast
8:56 AM 35.6 °F - 33.8 °F 93% 29.67 in 7.0 mi Calm Calm - N/A   Overcast
9:16 AM 35.6 °F - 33.8 °F 93% 29.67 in 7.0 mi Calm Calm - N/A   Overcast
9:36 AM 35.6 °F - 33.8 °F 93% 29.67 in 10.0 mi Calm Calm - N/A   Mostly Cloudy
9:56 AM 37.4 °F 34.9 °F 35.6 °F 93% 29.67 in 10.0 mi West 3.5 mph - N/A   Mostly Cloudy
10:16 AM 37.4 °F - 35.6 °F 93% 29.67 in 10.0 mi Calm Calm - N/A   Mostly Cloudy
10:36 AM 37.4 °F 34.9 °F 35.6 °F 93% 29.68 in 10.0 mi SW 3.5 mph - N/A   Mostly Cloudy
10:56 AM 37.4 °F - 35.6 °F 93% 29.68 in 10.0 mi Calm Calm - N/A   Mostly Cloudy
11:16 AM 35.6 °F - 33.8 °F 93% 29.68 in 10.0 mi Calm Calm - N/A   Mostly Cloudy
11:36 AM 37.4 °F - 35.6 °F 93% 29.67 in 10.0 mi Calm Calm - N/A   Mostly Cloudy
11:56 AM 39.2 °F - 35.6 °F 87% 29.67 in 10.0 mi Calm Calm - N/A   Scattered Clouds
12:16 PM 37.4 °F - 35.6 °F 93% 29.67 in 10.0 mi Calm Calm - N/A   Scattered Clouds
12:36 PM 39.2 °F - 35.6 °F 87% 29.67 in 10.0 mi Calm Calm - N/A   Scattered Clouds
12:56 PM 39.2 °F - 35.6 °F 87% 29.66 in 10.0 mi Calm Calm - N/A   Mostly Cloudy
1:16 PM 39.2 °F - 35.6 °F 87% 29.66 in 10.0 mi Calm Calm - N/A   Mostly Cloudy
1:36 PM 39.2 °F - 35.6 °F 87% 29.66 in 10.0 mi Calm Calm - N/A   Mostly Cloudy
1:56 PM 39.2 °F - 35.6 °F 87% 29.66 in 10.0 mi Calm Calm - N/A   Mostly Cloudy
2:16 PM 39.2 °F 37.0 °F 35.6 °F 87% 29.66 in 10.0 mi South 3.5 mph - N/A   Mostly Cloudy
2:36 PM 39.2 °F - 35.6 °F 87% 29.66 in 10.0 mi Calm Calm - N/A   Mostly Cloudy
2:56 PM 39.2 °F - 35.6 °F 87% 29.67 in 10.0 mi Calm Calm - N/A   Mostly Cloudy
3:16 PM 39.2 °F - 35.6 °F 87% 29.67 in 10.0 mi Calm Calm - 0.01 in   Mostly Cloudy
3:36 PM 37.4 °F - 33.8 °F 87% 29.67 in 10.0 mi Calm Calm - 0.01 in   Mostly Cloudy
3:56 PM 37.4 °F - 35.6 °F 93% 29.67 in 10.0 mi Calm Calm - 0.01 in   Overcast
4:16 PM 37.4 °F - 35.6 °F 93% 29.67 in 10.0 mi Calm Calm - 0.02 in   Overcast
4:36 PM 37.4 °F - 35.6 °F 93% 29.67 in 10.0 mi Calm Calm - 0.02 in   Overcast
4:56 PM 37.4 °F - 35.6 °F 93% 29.67 in 10.0 mi Calm Calm - 0.02 in   Overcast
5:16 PM 37.4 °F - 35.6 °F 93% 29.68 in 10.0 mi Calm Calm - 0.01 in   Overcast
5:36 PM 37.4 °F - 35.6 °F 93% 29.68 in 10.0 mi Calm Calm - 0.01 in   Overcast
5:56 PM 37.4 °F - 33.8 °F 87% 29.68 in 10.0 mi Calm Calm - 0.01 in   Overcast
6:16 PM 35.6 °F - 33.8 °F 93% 29.69 in 10.0 mi Calm Calm - 0.01 in   Overcast
6:36 PM 35.6 °F - 33.8 °F 93% 29.69 in 10.0 mi Calm Calm - 0.02 in   Overcast
6:56 PM 35.6 °F - 33.8 °F 93% 29.70 in 10.0 mi Calm Calm - 0.02 in   Overcast
7:16 PM 35.6 °F 32.8 °F 33.8 °F 93% 29.70 in 10.0 mi SW 3.5 mph - N/A   Overcast
7:36 PM 35.6 °F 32.8 °F 33.8 °F 93% 29.71 in 10.0 mi SW 3.5 mph - 0.01 in   Overcast
7:56 PM 35.6 °F - 33.8 °F 93% 29.71 in 10.0 mi Calm Calm - 0.02 in   Overcast
8:16 PM 35.6 °F - 33.8 °F 93% 29.72 in 10.0 mi Calm Calm - 0.01 in   Overcast
8:36 PM 35.6 °F - 33.8 °F 93% 29.73 in 10.0 mi Calm Calm - 0.01 in   Overcast
8:56 PM 35.6 °F - 33.8 °F 93% 29.73 in 10.0 mi Calm Calm - 0.01 in   Overcast
9:16 PM 35.6 °F - 33.8 °F 93% 29.74 in 10.0 mi Calm Calm - 0.01 in   Overcast
9:36 PM 35.6 °F 32.8 °F 33.8 °F 93% 29.74 in 10.0 mi SW 3.5 mph - 0.01 in   Overcast
9:56 PM 35.6 °F - 33.8 °F 93% 29.75 in 10.0 mi Calm Calm - 0.01 in   Overcast
10:16 PM 35.6 °F - 33.8 °F 93% 29.75 in 10.0 mi Calm Calm - N/A   Overcast
10:36 PM 35.6 °F - 33.8 °F 93% 29.75 in 10.0 mi Calm Calm - N/A   Overcast
10:56 PM 35.6 °F - 33.8 °F 93% 29.76 in 10.0 mi Calm Calm - N/A   Overcast
11:16 PM 35.6 °F 32.8 °F 33.8 °F 93% 29.76 in 10.0 mi SSW 3.5 mph - 0.01 in   Overcast
11:36 PM 35.6 °F - 33.8 °F 93% 29.77 in 10.0 mi Calm Calm - 0.01 in   Overcast
11:56 PM 35.6 °F - 33.8 °F 93% 29.77 in 10.0 mi Calm Calm - 0.01 in   Overcast